Globalstar M080

operational
NORAD ID: 38041 Int'l Des: 2011-080 Owner: GLOBL Country: US Constellation: globalstar
LEOCIRCULAR

关于 Globalstar M080

正在加载描述...

实时位置

正在加载3D地球...

即将过境

高度历史

Altitude vs Time

uPlot chart will show altitude changes over time

两行轨道根数

1 38041U 11080B 25299.16211006 -.00000088 00000-0 88872-4 0 9994
2 38041 52.0086 11.3761 0000955 106.1432 271.5555 12.62269877639338
Epoch: Oct 26, 2025 • Age: 8 hours

当前状态

高度 1414.7 km
速度 7.15 km/s
星下点 -1.17°S, 163.55°E
发射日期 Dec 28, 2011
运行时间 13.8 years
类型 communications

技术详情

分类 Payload
质量 715.00 kg
干质量 500.00 kg
总质量 715.00 kg
长度 4.00 m
直径 2.00 m
跨度 12.00 m
形状 Trap Cyl + 2 Pan
制造商 THALR
平台类型 Prisma
阶段状态 In Orbit
所有者/国家 GLOBL/US

大型星座

Loading constellations...